Hlavní strana
METAR-TAF:

METAR-TAF

Letiště :

Tri-County Airport

Ahoskie, Severní Karolína, Spojené státy americké

zeměpisná šířka: 36-17-51N, zeměpisná délka: 077-10-15W, výška: 21 m

Aktuální stav počasí

Zpráva byla vytvořena před 10 minutami, v 22:55 UTC
Západojihozápadní vítr 10 kt s nárazy do 14 kt
Teplota 17°C
Vlhkost vzduchu 68%
Tlak 1000 hPa
Viditelnost: 16.1 km
Zataženo ve výšce 4900 ft

METAR: KASJ 302255Z AUTO 24010G14KT 10SM OVC049 17/11 A2952 RMK AO2 T01670107

Čas: 18:05 (23:05 UTC)


TAF: chybějící

Stav a předpovědi počasí z více než 4 000 letišť (zprávy METAR a TAF).

Červené a žluté tečky na mapě představují dostupné meteorologické stanice.

Když kurzor umístíte na tečku, zobrazí se název stanice.

Pak kliknutím zobrazíte stav a předpověď počasí.

Chcete-li změnit mapu, kliknutím na zelené tlačítko se znaménkem +mapu přiblížíte, kliknutím na zelené tlačítko se znaménkem – mapu oddálíte a kliknutím na zelené šipky přejdete na sousední mapy.


METAR-TAF: